This is the latest recevied weather packets stored in our database for station/object KC8YYF. If no packets are shown the sender has not sent any weather packets the latest 10 day(s).
| Time | Temp. | Humidity | Pressure | Rain* | Wind** | Luminosity | Snow |
|---|---|---|---|---|---|---|---|
| 1777505963 | 11.11° C | 89% | 1010.8 hPa | 0 mm | - | 2 W/m² | - |
| 1777505659 | 11.67° C | 88% | 1010.9 hPa | 0 mm | - | 5 W/m² | - |
| 1777505356 | 11.67° C | 87% | 1010.7 hPa | 0 mm | - | 5 W/m² | - |
| 1777505052 | 11.67° C | 89% | 1010.9 hPa | 0 mm | - | 9 W/m² | - |
| 1777504749 | 11.67° C | 88% | 1010.6 hPa | 0 mm | - | 11 W/m² | - |
| 1777504447 | 11.67° C | 88% | 1010.6 hPa | 0 mm | - | 12 W/m² | - |
| 1777504143 | 11.67° C | 88% | 1010.4 hPa | 0 mm | - | 16 W/m² | - |
| 1777503838 | 12.22° C | 88% | 1010.2 hPa | 0 mm | - | 18 W/m² | - |
| 1777503535 | 12.22° C | 88% | 1010.4 hPa | 0 mm | - | 21 W/m² | - |
| 1777503231 | 12.22° C | 88% | 1010.2 hPa | 0 mm | - | 27 W/m² | - |
| 1777502928 | 12.22° C | 87% | 1010.2 hPa | 0 mm | - | 32 W/m² | - |
| 1777502625 | 12.22° C | 87% | 1009.9 hPa | 0 mm | - | 32 W/m² | - |
| 1777502322 | 12.22° C | 90% | 1010.1 hPa | 0 mm | - | 29 W/m² | - |
| 1777502018 | 12.22° C | 90% | 1009.8 hPa | 0 mm | - | 33 W/m² | - |
| 1777501716 | 12.22° C | 89% | 1009.9 hPa | 0 mm | - | 22 W/m² | - |
| 1777501413 | 12.78° C | 90% | 1009.8 hPa | 0 mm | - | 31 W/m² | - |
| 1777501110 | 12.78° C | 88% | 1009.6 hPa | 0 mm | - | 34 W/m² | - |
| 1777500809 | 13.33° C | 88% | 1009.6 hPa | 0 mm | - | 35 W/m² | - |
| 1777500506 | 13.89° C | 87% | 1009.7 hPa | 0 mm | - | 44 W/m² | - |
| 1777500201 | 13.33° C | 87% | 1009.8 hPa | 0 mm | - | 42 W/m² | - |
| 1777499899 | 13.33° C | 89% | 1009.7 hPa | 0 mm | - | 44 W/m² | - |
| 1777499595 | 12.78° C | 91% | 1009.8 hPa | 0 mm | - | 55 W/m² | - |
| 1777499292 | 12.22° C | 93% | 1010.2 hPa | 0 mm | - | 51 W/m² | - |
| 1777498990 | 12.78° C | 96% | 1009.8 hPa | 0 mm | - | 23 W/m² | - |
| 1777498685 | 12.78° C | 95% | 1009.7 hPa | 0 mm | - | 21 W/m² | - |
* Rain latest hour (hover to see other rain measurements)
** Current wind speed in m/s (hover to see current wind gust speed)